Location: Red Rock Canyon
(36.1333°N, 115.4333°W)
Time: 10:23:13
(UTC-07:00)

ISS - Visible Passes

Search period start: 23 October 2017 00:00
Search period end: 02 November 2017 00:00
Orbit: 400 x 408 km, 51.6° (Epoch: 24 October)

Date Brightness Start Highest point End Pass type
(mag) Time Alt. Az. Time Alt. Az. Time Alt. Az.
28 Oct -0.9 05:43:32 10° S 05:45:45 17° SE 05:47:59 10° E visible
29 Oct -3.9 06:26:19 10° SW 06:29:33 77° NW 06:32:48 10° NE visible
30 Oct -2.9 05:35:28 23° SSW 05:37:11 47° SE 05:40:19 10° ENE visible
31 Oct -0.9 04:46:07 18° E 04:46:07 18° E 04:47:27 10° ENE visible
31 Oct -2.9 06:18:49 13° W 06:21:12 30° NW 06:24:09 10° NNE visible
01 Nov -3.4 05:29:12 50° N 05:29:12 50° N 05:31:55 10° NE visible
